"Pseudo-MPEC" for P10OMcl

Created 2019 Jun 15 19:08:23 UT using Find_Orb

Click here for an explanation of pseudo-MPECs

 
 Astrometry: 
     P10OMcl  C2019 05 01/RR[+F*jmiuMm96i6!\'e;6V!^6cBrrNJ.Yp8$=[SjOl[r]6TdVJF51
     P10OMcl  C2019 05 01UXZ0pJs8BEflSEXZ'1$0W_(nv\3R`hd@RZjKMfJ9XXmO#K/^63nHF51
     P10OMcl  C2019 05 01sPpIg)UMKsH#Sl(YStkeA@Bm)']=O_jZVmG9HNeuvBNiK/X)mwJhF51
     P10OMcl  C2019 05 01?qq/4PnXdJK1M_)H6%QY*`[C(9GpY?hY(VcviM!n^?vxD4'Om2i(F51
     P10OMcl  C2019 05 12N20BZ[!S#Z53x1Kfq0_GbaEvCuC/d%7QiYeAstrometry$4r'o-;F51
     P10OMcl  C2019 05 12Grqr_B\DiD`5t]dqFNv]Y@qDD+LTIA!Blt[50YXUsG)V1!:Q:sqeF51
     P10OMcl  C2019 05 12pZB%^=Z/.;x?t1NnXW$DX[^dOW[:OQddMiHj$(T2C,Qq=%eP7DtIF51
     P10OMcl  C2019 05 27%X3TiIHsT2](V+LZgZl0gx[*W!4nEredacted;.$@+2dTZ]/FtkYF52
     P10OMcl  C2019 05 27=6Fx)0?[k#8l8-kF%oA0[+clicke;BN?u6Uuh8+-sPe1C#r4#w^DF52
     P10OMcl  C2019 05 27b?)M5KU+AN#d27-JvnwMYcJ\58:gv8OpBV_G1ji_G_#ZQ0^M%\T^F52
     P10OMcl  C2019 06 01y$u4=5!m'P=I`KqFn0nShN^x2fWH@pGyk\Z7c;h'e(]jT*^dRkRZF52
     P10OMcl  C2019 06 01P+Fpoj2piW,_kDIhere-fPLngHqg#Es]OX*EuS6-#%?0?0Th=trCF52
     P10OMcl  C2019 06 01B__k1924_+Lhd049=J@)?PHP^jG2EUV*gx2U7q[%[k9N.=O)!nYIF52
     P10OMcl  C2019 06 01xrn^0E9@)9a'K=rwxxXDka,/650^I3]A'7%l\s2e2NG8k?5C=GAcF52
     P10OMcl  C2019 06 07.Nrxc\]2ot-Q1gwm`c2L73\S-J/!3qO_p9AS%kM3B8s+`\qfN++0F51
     P10OMcl  C2019 06 078ljb!lPsA5C41v:#Mx;Mqg-K-[V8FH+61`(;YJP^;RR=/%o$,@$MF51
     P10OMcl  C2019 06 07N*[c:s/cXFN?(iR,s/E5aw,K#VOcv.7$8rhREQ;forXQiwZ2)f,8F51
     P10OMcl KC2019 06 08euTc[%@7T)4b@lTl4-8fpqFGQX*rw]9QO0@fdJT'DG[k[B)!ESsk291
     P10OMcl KC2019 06 08T$#^PB[h5fhdv/+;3_v1`1BT_wS8JDFOG_YC@GYa6w7y(,fB(w(n291
     P10OMcl KC2019 06 08T$9U,SRUT75x261sL.d%kqk3SC;Gw@I6vXB1u2ff!x7)Kk6C\-5o291
     P10OMcl ^C2019 06 12`Xe.U_1E5jh7U=#A)$9(explanationBS4hiWJPFtkX_ygxd33.U695
     P10OMcl ^C2019 06 12Jdr(_!,y]uk6c4HhenbVM!/:yMM2\(6FT+0%^G'Z8rw'@eF4'V;(695
     P10OMcl ^C2019 06 12?V[l]m(@^NN4^[r,c,x[^%!IKiQ[+3;omRur$!W8_8dEUqx6U#kX695

Station data:
(291) LPL/Spacewatch II  (N31.961669 W111.599905)  US/Arizona.  Observers J.
   V. Scotti, R. S. McMillan. 1.8-m f/2.7 reflector + CCD.
(695) Kitt Peak  (N31.958398 W111.594670)  US/Arizona.
(F51) Pan-STARRS 1, Haleakala  (N20.707235 W156.255910)  US/Hawaii.
   Observers N. Primak, A. Schultz, S. Watters, J. Thiel, T. Goggia. Measurer
   PS1 Science Consortium. 1.8-m Ritchey-Chrétien + CCD.
(F52) Pan-STARRS 2, Haleakala  (N20.707384 W156.255910)  US/Hawaii. 1.8-m
   Ritchey-Chrétien + CCD.

Orbital elements:  P10OMcl
   Perihelion 2020 Jun 6.529485 +/- 0.0934 TT = 12:42:27 (JD 2459007.029485)
Epoch 2019 Jun 12.0 TT = JDT 2458646.5   Earth MOID: 0.7396   AutoNEOCP
M 221.83677843 +/- 0.032            (J2000 ecliptic)
n   0.38322308 +/- 1.67e-5          Peri.  200.49554 +/- 0.024
a   1.87716136 +/- 5.44e-5          Node   197.81276 +/- 0.0031
e   0.0778979 +/- 3.31e-5           Incl.   21.83825 +/- 0.0016
P   2.57/939.38d           H 19.5   G  0.15   U  5.4  
q 1.73093428 +/- 8.82e-5    Q 2.02338844 +/- 7.51e-5
From 23 observations 2019 May 1-June 12; mean residual 0".25
Residuals in arcseconds: 
190501 F51  .02+  .00     190527 F52  .04-  .03-    190607 F51  .16+  .17-    
190501 F51  .02-  .05+    190527 F52  .39-  .00     190608 291  1.1-  .88-    
190501 F51  .03+  .04+    190601 F52  .16+  .05+    190608 291  .28+  .07+    
190501 F51  .02-  .05-    190601 F52  .28+  .18+    190608 291  .18+  .35+    
190512 F51  .07-  .06-    190601 F52  .18+  .14+    190612 695  .05+  .20+    
190512 F51  .05-  .05-    190601 F52  .01+  .09+    190612 695  .06+  .13-    
190512 F51  .13+  .03+    190607 F51  .08+  .02+    190612 695  .06+  .15+    
190527 F52  .09+  .05-    190607 F51  .03+  .13+    

Ephemerides (geocentric):
Date (UTC) HH   RA              Dec         delta   r     elong  mag " sig PA
---- -- -- --  -------------   -----------  ------ ------ -----  --- ---- ---
2019 06 15 19  16 28 07.478   +13 28 28.73  1.1015 1.9885 139.8 22.1 .217  33
2019 06 15 20  16 28 05.040   +13 28 37.94  1.1016 1.9885 139.8 22.1 .219  33
2019 06 15 21  16 28 02.603   +13 28 47.11  1.1018 1.9885 139.7 22.1 .220  33
2019 06 15 22  16 28 00.168   +13 28 56.22  1.1019 1.9885 139.7 22.1 .221  33
2019 06 15 23  16 27 57.735   +13 29 05.29  1.1021 1.9884 139.7 22.1 .222  33
2019 06 16 00  16 27 55.305   +13 29 14.30  1.1022 1.9884 139.7 22.1 .223  33
2019 06 16 01  16 27 52.876   +13 29 23.26  1.1023 1.9884 139.6 22.1 .224  33
2019 06 16 02  16 27 50.449   +13 29 32.17  1.1025 1.9884 139.6 22.1 .226  33
2019 06 16 03  16 27 48.025   +13 29 41.03  1.1026 1.9883 139.6 22.1 .227  33
2019 06 16 04  16 27 45.602   +13 29 49.84  1.1028 1.9883 139.6 22.1 .228  32
2019 06 16 05  16 27 43.182   +13 29 58.60  1.1029 1.9883 139.5 22.1 .229  32
2019 06 16 06  16 27 40.763   +13 30 07.31  1.1030 1.9883 139.5 22.1 .230  32
2019 06 16 07  16 27 38.347   +13 30 15.96  1.1032 1.9882 139.5 22.1 .231  32
2019 06 16 08  16 27 35.933   +13 30 24.57  1.1033 1.9882 139.5 22.1 .233  32
2019 06 16 09  16 27 33.520   +13 30 33.12  1.1035 1.9882 139.4 22.1 .234  32
2019 06 16 10  16 27 31.110   +13 30 41.63  1.1036 1.9882 139.4 22.1 .235  32
2019 06 16 11  16 27 28.702   +13 30 50.08  1.1037 1.9881 139.4 22.1 .236  32
2019 06 16 12  16 27 26.296   +13 30 58.48  1.1039 1.9881 139.4 22.1 .237  32
2019 06 16 13  16 27 23.893   +13 31 06.83  1.1040 1.9881 139.3 22.1 .238  32
2019 06 16 14  16 27 21.491   +13 31 15.13  1.1042 1.9881 139.3 22.1 .240  32
2019 06 16 15  16 27 19.091   +13 31 23.38  1.1043 1.9880 139.3 22.1 .241  32
2019 06 16 16  16 27 16.694   +13 31 31.58  1.1045 1.9880 139.3 22.2 .242  32
2019 06 16 17  16 27 14.298   +13 31 39.72  1.1046 1.9880 139.2 22.2 .243  32
2019 06 16 18  16 27 11.905   +13 31 47.82  1.1048 1.9880 139.2 22.2 .244  32
2019 06 16 19  16 27 09.514   +13 31 55.87  1.1049 1.9879 139.2 22.2 .246  32
2019 06 16 20  16 27 07.125   +13 32 03.86  1.1050 1.9879 139.2 22.2 .247  32
2019 06 16 21  16 27 04.738   +13 32 11.80  1.1052 1.9879 139.1 22.2 .248  31
2019 06 16 22  16 27 02.353   +13 32 19.70  1.1053 1.9879 139.1 22.2 .249  31
2019 06 16 23  16 26 59.971   +13 32 27.54  1.1055 1.9878 139.1 22.2 .250  31
2019 06 17 00  16 26 57.590   +13 32 35.33  1.1056 1.9878 139.1 22.2 .251  31
2019 06 17 01  16 26 55.212   +13 32 43.07  1.1058 1.9878 139.0 22.2 .253  31
2019 06 17 02  16 26 52.836   +13 32 50.77  1.1059 1.9878 139.0 22.2 .254  31
2019 06 17 03  16 26 50.462   +13 32 58.41  1.1061 1.9877 139.0 22.2 .255  31
2019 06 17 04  16 26 48.090   +13 33 06.00  1.1062 1.9877 139.0 22.2 .256  31
2019 06 17 05  16 26 45.720   +13 33 13.54  1.1064 1.9877 138.9 22.2 .257  31
2019 06 17 06  16 26 43.353   +13 33 21.02  1.1065 1.9876 138.9 22.2 .259  31
2019 06 17 07  16 26 40.987   +13 33 28.46  1.1067 1.9876 138.9 22.2 .260  31
2019 06 17 08  16 26 38.624   +13 33 35.85  1.1068 1.9876 138.9 22.2 .261  31
2019 06 17 09  16 26 36.263   +13 33 43.19  1.1070 1.9876 138.8 22.2 .262  31
2019 06 17 10  16 26 33.905   +13 33 50.47  1.1071 1.9875 138.8 22.2 .264  31
2019 06 17 11  16 26 31.548   +13 33 57.71  1.1073 1.9875 138.8 22.2 .265  31
2019 06 17 12  16 26 29.194   +13 34 04.90  1.1074 1.9875 138.8 22.2 .266  31
2019 06 17 13  16 26 26.842   +13 34 12.03  1.1075 1.9875 138.7 22.2 .267  31
2019 06 17 14  16 26 24.492   +13 34 19.12  1.1077 1.9874 138.7 22.2 .268  30
2019 06 17 15  16 26 22.144   +13 34 26.15  1.1078 1.9874 138.7 22.2 .270  30
2019 06 17 16  16 26 19.799   +13 34 33.14  1.1080 1.9874 138.6 22.2 .271  30
2019 06 17 17  16 26 17.456   +13 34 40.07  1.1082 1.9874 138.6 22.2 .272  30
2019 06 17 18  16 26 15.115   +13 34 46.96  1.1083 1.9873 138.6 22.2 .273  30